sat.trackr.live / text

‹ back to catalog

GSAT-8 (GAGAN/PRN 127)

NORAD 37605 · 2011-022A

PAYLOAD ACTIVE UNKNOWN

§ Identity

Operator
Country
IND
Launch date
2011-05-20
Launch site
FRGUI
Launch vehicle
Mass (kg)
RCS (m²)
6.31

Purposes: comms, nav

External: N2YO · Heavens-Above · Gunter

§ Orbital elements

Epoch: 2026-09-18T22:24:59.508576Z

Period
1,436.08 min
Inclination
2.3665°
Eccentricity
0.0006022
Mean motion
1.00273106 rev/d
Perigee alt
35,760.8 km
Apogee alt
35,811.6 km
Semi-major
42,164.4 km
B*
0.0000e+0
RAAN
80.5718°
Arg perigee
157.1771°
Mean anomaly
151.4665°
Rev number
5,415

§ Raw data

GSAT-8 (GAGAN/PRN 127)1 37605U 11022A   26261.93402209  .00000080  00000+0  00000+0 0  99992 37605   2.3665  80.5718 0006022 157.1771 151.4665  1.00273106 54156

JSON: /api/v1/satellites/37605 · /tle

For live sub-satellite position, see the globe view (requires WebGL).

§ Visibility from observer

Set your observer location to see the next 7 days of passes ≥ 10°. The values pass through the URL so the page stays shareable.

No JS? Fill the form by hand. The geolocation button needs JavaScript.